Regional Weather Roundup
Issued by NWS

Home | Current Version | Previous Version | Graphics & Text | Print | Product List | Glossary On
Versions: 1 2 3 4 5 6 7 8 9 10 11 12 13 14 15 16 17 18 19 20 21 22 23 24 25 26 27 28 29 30 31 32 33 34 35 36 37 38 39 40 41 42 43 44 45 46 47 48 49 50
000
ASUS43 KLOT 252003
RWRIL

ILLINOIS REGIONAL WEATHER ROUNDUP
NATIONAL WEATHER SERVICE CHICAGO/ROMEOVILLE IL
200 PM CST SAT FEB 25 2017

NOTE: "FAIR" INDICATES FEW OR NO CLOUDS BELOW 12,000 FEET WITH NO
SIGNIFICANT WEATHER AND/OR OBSTRUCTIONS TO VISIBILITY.

* THESE STATIONS ARE NOT UNDER NWS QUALITY CONTROL. THEY ALSO MAY NOT
  REPORT WEATHER SUCH AS PRECIPITATION OR FOG.

ILZ001-002-007-009-015-016-024-252100-
NORTHWEST ILLINOIS

CITY           SKY/WX    TMP DP  RH WIND       PRES   REMARKS
MOLINE         SUNNY     30  17  58 W16       29.99S WCI  19
STERLING*      PTSUNNY   29  19  66 NW17G30   29.95R WCI  17
$$

ILZ003-004-008-010-011-017-018-252100-
NORTH CENTRAL ILLINOIS

CITY           SKY/WX    TMP DP  RH WIND       PRES   REMARKS
ROCKFORD       CLOUDY    26  15  63 NW22G29   29.93R WCI  12
FREEPORT*      CLOUDY    24  15  69 W18G25    29.94R WCI  10
ROCHELLE*      CLOUDY    26  19  72 W21       29.92R WCI  12
DE KALB*       CLOUDY    26  18  70 W25       29.90R WCI  11
PERU*          CLOUDY    26  17  68 W23G31    29.96R WCI  12
$$

ILZ005-006-012>014-019>023-252100-
NORTHEAST ILLINOIS

CITY           SKY/WX    TMP DP  RH WIND       PRES   REMARKS
CHICAGO-OHARE  FLURRIES  26  13  57 W20G28    29.88R WCI  12
CHICAGO-MIDWAY FLURRIES  27  13  55 W16G28    29.89R WCI  15
AURORA         CLOUDY    28  17  63 W21G29    29.90R WCI  15
LANSING*       CLOUDY    26  16  64 W16G28    29.90R WCI  14
JOLIET*        CLOUDY    29  18  62 W16G24    29.92R WCI  17
WAUKEGAN       LGT SNOW  22  13  68 NW9G20    29.86R WCI  12
DUPAGE AIRPORT CLOUDY    26  14  60 W22G29    29.89R WCI  12
KANKAKEE*      PTSUNNY   29  15  57 W18G30    29.93R WCI  16
WHEELING       FLURRIES  24  12  60 W16       29.89R WCI  11
MORRIS*        CLOUDY    29  18  62 W23G29    29.92R WCI  16
ROMEOVILLE*    CLOUDY    28  21  75 W18G24    29.90S WCI  15
NORTHERLY ISL    N/A     25  13  60 W13         N/A  WCI  14
$$

LMZ740>746-252100-
SOUTHERN LAKE MICHIGAN

STATION/POSITION SKY/WX   TEMP    WIND        PRES    VSBY  WAVE
                          AIR SEA DIR/SP/G                  HT/PER
                          (F)     (DEG/KT/KT) (MB)    (MI)  (FT/S)
HARRISON CRIB              25     280/ 22/ 25   N/A
BURNHAM HARBOR             26     280/ 16/ 20   N/A
CALUMET HARBOR             26     250/ 13/ 20 1011.5R
BURNS HARBOR               27     270/ 18/ 25 1012.2R
MICHIGAN CITY              25     250/ 24/ 28   N/A
$$

ILZ025>027-034>036-040-047-049-050-058-095>099-252100-
WEST-CENTRAL ILLINOIS

CITY           SKY/WX    TMP DP  RH WIND       PRES   REMARKS
QUINCY         SUNNY     34  13  41 W17       30.07R WCI  23
GALESBURG*     MOSUNNY   28  20  71 W20G26    30.01R WCI  15
MACOMB*        MOSUNNY   32  18  56 NW18G26   30.06R WCI  20
JACKSONVILLE*  MOSUNNY   35  17  47 W20G28    30.05S WCI  24
PITTSFIELD*    SUNNY     34  15  46 W18G25    30.08S WCI  23
$$

ILZ028>032-037-038-041>044-048-051>054-059>061-252100-
CENTRAL ILLINOIS

CITY           SKY/WX    TMP DP  RH WIND       PRES   REMARKS
PONTIAC        PTSUNNY   32  18  56 W22G29    29.96R WCI  19
BLOOMINGTON    PTSUNNY   31  18  58 W21       29.98R WCI  18
DECATUR        SUNNY     34  11  38 W20G32    30.00S WCI  23
PEORIA         CLOUDY    30  16  56 W17G24    30.01R WCI  18
LACON*         CLOUDY    30  17  59 W15G22    29.98R WCI  19
LINCOLN*       SUNNY     34  16  47 W8G24     30.02R WCI  27
SPRINGFIELD    MOSUNNY   36  15  42 W22G30    30.03R WCI  25
TAYLORVILLE    SUNNY     34  14  43 W15G25    30.03S WCI  24
$$

ILZ033-039-045-046-055>057-062-063-252100-
EAST-CENTRAL ILLINOIS

CITY           SKY/WX    TMP DP  RH WIND       PRES   REMARKS
CHAMPAIGN      PTSUNNY   34  15  46 W23G30    29.97R WCI  22
RANTOUL*       CLOUDY    33  20  59 W23       29.96R WCI  20
MATTOON        MOSUNNY   36  15  42 W21G29    29.99R WCI  25
PARIS*         PTSUNNY   35  17  48 W22G29    29.99R WCI  23
$$

ILZ079-100>102-252100-
SOUTHWEST ILLINOIS

CITY           SKY/WX    TMP DP  RH WIND       PRES   REMARKS
ALTON          MOSUNNY   36  16  44 W18G28    30.08R WCI  25
BELLEVILLE     SUNNY     40  13  33 W14G23    30.06S
CAHOKIA*       SUNNY     40  13  33 W10G23    30.08S
SPARTA*        SUNNY     39  14  37 W14G23    30.09R WCI  30
$$

ILZ064>066-069>071-074>076-080>082-084>086-088>090-092>094-252100-
SOUTH-CENTRAL ILLINOIS

CITY           SKY/WX    TMP DP  RH WIND       PRES   REMARKS
CARBONDALE     SUNNY     41  16  36 W9        30.07F
CAIRO*         SUNNY     42  18  38 NW13G22   30.09S
EFFINGHAM*     PTSUNNY  N/A N/A N/A W13G29    30.04S
MARION         MOSUNNY   45  16  31 NW14      30.08S
MT. VERNON     MOSUNNY   38  17  42 W15G22    30.07R WCI  29
CENTRALIA*     MOSUNNY   38  19  46 W15G26    30.06R WCI  30
SALEM*         MOSUNNY   37  16  42 W12G21    30.05S WCI  30
METROPOLIS*    SUNNY     42  17  36 SW12G20   30.08S
$$

ILZ067-068-072-073-078-083-087-091-252100-
SOUTHEAST ILLINOIS

CITY           SKY/WX    TMP DP  RH WIND       PRES   REMARKS
LAWRENCEVILLE  MOSUNNY   36  18  48 W20G25    30.04R WCI  25
FLORA*         MOSUNNY   38  18  43 W12G18    30.05R WCI  31
FAIRFIELD*     SUNNY     37  17  43 W10       30.05R WCI  30
HARRISBURG*    MOSUNNY   40  20  46 W14G23    30.08R
ROBINSON*      MOSUNNY   35  19  52 W17       30.03S WCI  24
CARMI*         MOSUNNY   39  20  47 W18G25    30.05S WCI  29
$$

ABBREVIATIONS USED IN REMARKS
   TC - TEMPERATURE IN CELSIUS
  WCI - WIND CHILL INDEX
   HX - HEAT INDEX
  VSB - VISIBILITY
$$





USA.gov is the U.S. government's official web portal to all federal, state and local government web resources and services.